Time,TemperatureF,DewpointF,PressureIn,WindDirection,WindDirectionDegrees,WindSpeedMPH,WindSpeedGustMPH,Humidity,HourlyPrecipIn,Conditions,Clouds,dailyrainin,SoftwareType,DateUTC
2013-08-14 00:02:00,65.4,64.8,29.68,West,273,0.0,0.0,98,0.00,,,0.14,Wunderground PWS Mod,2013-08-14 04:02:00,
2013-08-14 00:04:00,65.4,64.8,29.68,West,273,0.0,0.0,98,0.00,,,0.00,Wunderground PWS Mod,2013-08-14 04:04:00,
2013-08-14 00:06:00,65.4,64.8,29.68,West,273,0.0,0.0,98,0.00,,,0.00,Wunderground PWS Mod,2013-08-14 04:06:00,
2013-08-14 00:09:00,65.4,64.8,29.68,West,273,0.0,0.0,98,0.00,,,0.00,Wunderground PWS Mod,2013-08-14 04:09:00,
2013-08-14 00:14:00,65.4,64.8,29.68,West,273,0.0,0.0,98,0.00,,,0.00,Wunderground PWS Mod,2013-08-14 04:14:00,
2013-08-14 00:19:00,65.4,64.8,29.67,West,273,0.0,0.0,98,0.00,,,0.00,Wunderground PWS Mod,2013-08-14 04:19:00,
2013-08-14 00:25:00,65.4,64.8,29.67,West,273,0.0,0.0,98,0.00,,,0.00,Wunderground PWS Mod,2013-08-14 04:25:00,
2013-08-14 00:30:00,65.4,64.8,29.68,West,273,0.0,0.0,98,0.00,,,0.00,Wunderground PWS Mod,2013-08-14 04:30:00,
2013-08-14 00:36:00,65.4,64.8,29.68,West,273,0.0,0.0,98,0.00,,,0.00,Wunderground PWS Mod,2013-08-14 04:36:00,
2013-08-14 00:42:00,65.4,64.8,29.68,West,273,0.0,0.0,98,0.00,,,0.00,Wunderground PWS Mod,2013-08-14 04:42:00,
2013-08-14 00:47:00,65.3,64.7,29.68,West,273,0.0,0.0,98,0.00,,,0.00,Wunderground PWS Mod,2013-08-14 04:47:00,
2013-08-14 00:53:00,65.4,64.8,29.68,West,273,0.0,0.0,98,0.00,,,0.00,Wunderground PWS Mod,2013-08-14 04:53:00,
2013-08-14 00:58:00,65.4,64.8,29.67,West,273,0.0,0.0,98,0.00,,,0.00,Wunderground PWS Mod,2013-08-14 04:58:00,
2013-08-14 01:04:00,65.4,64.8,29.68,West,273,0.0,0.0,98,0.00,,,0.00,Wunderground PWS Mod,2013-08-14 05:04:00,
2013-08-14 01:09:00,65.4,64.8,29.68,West,273,0.0,0.0,98,0.00,,,0.00,Wunderground PWS Mod,2013-08-14 05:09:00,
2013-08-14 01:15:00,65.4,64.8,29.67,West,273,0.0,0.0,98,0.00,,,0.00,Wunderground PWS Mod,2013-08-14 05:15:00,
2013-08-14 01:20:00,65.4,64.8,29.67,West,273,0.0,0.0,98,0.00,,,0.00,Wunderground PWS Mod,2013-08-14 05:20:00,
2013-08-14 01:25:00,65.5,64.9,29.68,West,273,0.0,0.0,98,0.00,,,0.00,Wunderground PWS Mod,2013-08-14 05:25:00,
2013-08-14 01:30:00,65.6,65.0,29.68,West,273,0.0,0.0,98,0.00,,,0.00,Wunderground PWS Mod,2013-08-14 05:30:00,
2013-08-14 01:35:00,65.6,65.0,29.68,West,273,0.0,0.0,98,0.00,,,0.00,Wunderground PWS Mod,2013-08-14 05:35:00,
2013-08-14 01:41:00,65.6,65.0,29.67,West,273,0.0,0.0,98,0.00,,,0.00,Wunderground PWS Mod,2013-08-14 05:41:00,
2013-08-14 01:46:00,65.6,65.0,29.67,West,273,0.0,0.0,98,0.00,,,0.00,Wunderground PWS Mod,2013-08-14 05:46:00,
2013-08-14 01:51:00,65.6,65.0,29.67,West,273,0.0,0.0,98,0.00,,,0.00,Wunderground PWS Mod,2013-08-14 05:51:00,
2013-08-14 01:56:00,65.5,64.9,29.67,WNW,300,0.0,0.0,98,0.00,,,0.00,Wunderground PWS Mod,2013-08-14 05:56:00,
2013-08-14 02:02:00,65.5,64.9,29.67,WNW,300,0.0,0.0,98,0.00,,,0.00,Wunderground PWS Mod,2013-08-14 06:02:00,
2013-08-14 02:07:00,65.5,64.9,29.67,WNW,300,0.0,0.0,98,0.00,,,0.00,Wunderground PWS Mod,2013-08-14 06:07:00,
2013-08-14 02:13:00,65.4,64.8,29.67,WNW,300,0.0,0.0,98,0.00,,,0.00,Wunderground PWS Mod,2013-08-14 06:13:00,
2013-08-14 02:18:00,65.4,64.8,29.67,WNW,300,0.0,0.0,98,0.00,,,0.00,Wunderground PWS Mod,2013-08-14 06:18:00,
2013-08-14 02:24:00,65.3,64.7,29.67,WNW,300,0.0,0.0,98,0.00,,,0.00,Wunderground PWS Mod,2013-08-14 06:24:00,
2013-08-14 02:30:00,65.2,64.6,29.67,WNW,300,0.0,0.0,98,0.00,,,0.00,Wunderground PWS Mod,2013-08-14 06:30:00,
2013-08-14 02:35:00,65.1,64.5,29.66,NW,325,0.0,0.0,98,0.00,,,0.00,Wunderground PWS Mod,2013-08-14 06:35:00,
2013-08-14 02:40:00,65.0,64.4,29.66,NW,325,0.0,0.0,98,0.00,,,0.00,Wunderground PWS Mod,2013-08-14 06:40:00,
2013-08-14 02:46:00,64.8,64.2,29.67,NW,324,0.0,0.0,98,0.00,,,0.00,Wunderground PWS Mod,2013-08-14 06:46:00,
2013-08-14 02:51:00,64.7,64.1,29.67,NNE,22,0.0,0.0,98,0.00,,,0.00,Wunderground PWS Mod,2013-08-14 06:51:00,
2013-08-14 02:57:00,64.6,63.7,29.67,NNE,22,0.0,0.0,97,0.00,,,0.00,Wunderground PWS Mod,2013-08-14 06:57:00,
2013-08-14 03:02:00,64.4,63.5,29.67,NE,50,0.0,0.0,97,0.00,,,0.00,Wunderground PWS Mod,2013-08-14 07:02:00,
2013-08-14 03:07:00,64.2,63.3,29.67,NE,50,0.0,0.0,97,0.00,,,0.00,Wunderground PWS Mod,2013-08-14 07:07:00,
2013-08-14 03:12:00,64.1,63.2,29.67,NNE,30,0.0,0.0,97,0.00,,,0.00,Wunderground PWS Mod,2013-08-14 07:12:00,
2013-08-14 03:18:00,64.0,62.8,29.67,NNE,12,0.0,0.0,96,0.00,,,0.00,Wunderground PWS Mod,2013-08-14 07:18:00,
2013-08-14 03:23:00,63.8,62.6,29.67,NNW,334,0.0,0.0,96,0.00,,,0.00,Wunderground PWS Mod,2013-08-14 07:23:00,
2013-08-14 03:29:00,63.6,62.1,29.67,North,350,0.0,0.0,95,0.00,,,0.00,Wunderground PWS Mod,2013-08-14 07:29:00,
2013-08-14 03:34:00,63.3,61.5,29.67,NNE,23,0.0,0.0,94,0.00,,,0.00,Wunderground PWS Mod,2013-08-14 07:34:00,
2013-08-14 03:39:00,63.2,61.4,29.67,NNE,19,0.0,0.0,94,0.00,,,0.00,Wunderground PWS Mod,2013-08-14 07:39:00,
2013-08-14 03:45:00,63.1,61.3,29.67,NNE,22,0.0,0.0,94,0.00,,,0.00,Wunderground PWS Mod,2013-08-14 07:45:00,
2013-08-14 03:50:00,62.9,61.1,29.67,NE,53,0.0,0.0,94,0.00,,,0.00,Wunderground PWS Mod,2013-08-14 07:50:00,
2013-08-14 03:56:00,62.7,60.6,29.67,NE,37,0.0,0.0,93,0.00,,,0.00,Wunderground PWS Mod,2013-08-14 07:56:00,
2013-08-14 04:01:00,62.5,60.4,29.67,North,5,0.0,0.0,93,0.00,,,0.00,Wunderground PWS Mod,2013-08-14 08:01:00,
2013-08-14 04:07:00,62.4,60.3,29.67,NNE,33,0.0,3.0,93,0.00,,,0.00,Wunderground PWS Mod,2013-08-14 08:07:00,
2013-08-14 04:12:00,62.3,60.2,29.68,NNE,22,0.0,3.0,93,0.00,,,0.00,Wunderground PWS Mod,2013-08-14 08:12:00,
2013-08-14 04:14:00,62.5,60.4,29.67,NNE,23,0.0,3.0,93,0.00,,,0.00,Wunderground PWS Mod,2013-08-14 08:14:00,
2013-08-14 04:17:00,62.2,60.2,29.68,NNE,26,0.0,3.0,93,0.00,,,0.00,Wunderground PWS Mod,2013-08-14 08:17:00,
2013-08-14 04:23:00,62.2,60.5,29.68,NNE,24,0.0,3.0,94,0.00,,,0.00,Wunderground PWS Mod,2013-08-14 08:23:00,
2013-08-14 04:28:00,62.1,60.4,29.68,NNE,30,0.0,3.0,94,0.00,,,0.00,Wunderground PWS Mod,2013-08-14 08:28:00,
2013-08-14 04:33:00,62.1,60.4,29.68,NNE,30,0.0,3.0,94,0.00,,,0.00,Wunderground PWS Mod,2013-08-14 08:33:00,
2013-08-14 04:38:00,62.0,60.6,29.68,NNE,25,0.0,3.0,95,0.00,,,0.00,Wunderground PWS Mod,2013-08-14 08:38:00,
2013-08-14 04:44:00,61.6,59.6,29.68,NE,46,0.0,3.0,93,0.00,,,0.00,Wunderground PWS Mod,2013-08-14 08:44:00,
2013-08-14 04:50:00,61.4,58.7,29.69,NE,40,0.0,3.0,91,0.00,,,0.00,Wunderground PWS Mod,2013-08-14 08:50:00,
2013-08-14 04:55:00,61.2,57.3,29.68,NNE,26,1.0,3.0,87,0.00,,,0.00,Wunderground PWS Mod,2013-08-14 08:55:00,
2013-08-14 05:00:00,61.1,56.9,29.69,NNE,22,0.0,3.0,86,0.00,,,0.00,Wunderground PWS Mod,2013-08-14 09:00:00,
2013-08-14 05:06:00,61.0,57.1,29.69,ENE,66,0.0,3.0,87,0.00,,,0.00,Wunderground PWS Mod,2013-08-14 09:06:00,
2013-08-14 05:11:00,60.8,56.6,29.69,NE,35,1.0,3.0,86,0.00,,,0.00,Wunderground PWS Mod,2013-08-14 09:11:00,
2013-08-14 05:16:00,60.7,56.2,29.69,NNE,13,1.0,3.0,85,0.00,,,0.00,Wunderground PWS Mod,2013-08-14 09:16:00,
2013-08-14 05:22:00,60.6,56.1,29.69,North,5,1.0,4.0,85,0.00,,,0.00,Wunderground PWS Mod,2013-08-14 09:22:00,
2013-08-14 05:27:00,60.4,55.9,29.70,NE,50,1.0,4.0,85,0.00,,,0.00,Wunderground PWS Mod,2013-08-14 09:27:00,
2013-08-14 05:33:00,60.3,55.1,29.70,NNE,28,1.0,3.0,83,0.00,,,0.00,Wunderground PWS Mod,2013-08-14 09:33:00,
2013-08-14 05:38:00,60.4,54.9,29.70,North,5,1.0,3.0,82,0.00,,,0.00,Wunderground PWS Mod,2013-08-14 09:38:00,
2013-08-14 05:44:00,60.3,55.1,29.70,North,5,1.0,3.0,83,0.00,,,0.00,Wunderground PWS Mod,2013-08-14 09:44:00,
2013-08-14 05:50:00,60.1,54.2,29.71,NNE,28,1.0,3.0,81,0.00,,,0.00,Wunderground PWS Mod,2013-08-14 09:50:00,
2013-08-14 05:55:00,60.1,54.2,29.71,NE,38,1.0,3.0,81,0.00,,,0.00,Wunderground PWS Mod,2013-08-14 09:55:00,
2013-08-14 06:01:00,60.0,53.8,29.71,North,355,0.0,3.0,80,0.00,,,0.00,Wunderground PWS Mod,2013-08-14 10:01:00,
2013-08-14 06:06:00,60.0,53.8,29.72,NNE,20,0.0,3.0,80,0.00,,,0.00,Wunderground PWS Mod,2013-08-14 10:06:00,
2013-08-14 06:11:00,59.9,53.4,29.72,NNE,13,1.0,3.0,79,0.00,,,0.00,Wunderground PWS Mod,2013-08-14 10:11:00,
2013-08-14 06:17:00,59.8,53.6,29.72,NE,39,1.0,3.0,80,0.00,,,0.00,Wunderground PWS Mod,2013-08-14 10:17:00,
2013-08-14 06:22:00,59.7,53.5,29.72,NNE,28,0.0,3.0,80,0.00,,,0.00,Wunderground PWS Mod,2013-08-14 10:22:00,
2013-08-14 06:27:00,59.6,53.4,29.73,NE,39,1.0,3.0,80,0.00,,,0.00,Wunderground PWS Mod,2013-08-14 10:27:00,
2013-08-14 06:33:00,59.5,53.3,29.73,North,351,0.0,3.0,80,0.00,,,0.00,Wunderground PWS Mod,2013-08-14 10:33:00,
2013-08-14 06:38:00,59.4,53.2,29.73,NE,50,0.0,3.0,80,0.00,,,0.00,Wunderground PWS Mod,2013-08-14 10:38:00,
2013-08-14 06:43:00,59.4,53.2,29.73,NNW,347,0.0,3.0,80,0.00,,,0.00,Wunderground PWS Mod,2013-08-14 10:43:00,
2013-08-14 06:49:00,59.3,53.1,29.74,NW,317,0.0,3.0,80,0.00,,,0.00,Wunderground PWS Mod,2013-08-14 10:49:00,
2013-08-14 06:54:00,59.2,53.0,29.74,NE,48,0.0,3.0,80,0.00,,,0.00,Wunderground PWS Mod,2013-08-14 10:54:00,
2013-08-14 06:59:00,59.1,52.9,29.74,NE,46,0.0,3.0,80,0.00,,,0.00,Wunderground PWS Mod,2013-08-14 10:59:00,
2013-08-14 07:04:00,59.0,53.2,29.74,NE,46,0.0,3.0,81,0.00,,,0.00,Wunderground PWS Mod,2013-08-14 11:04:00,
2013-08-14 07:10:00,58.9,53.1,29.74,NE,46,0.0,3.0,81,0.00,,,0.00,Wunderground PWS Mod,2013-08-14 11:10:00,
2013-08-14 07:15:00,58.8,53.3,29.74,North,9,0.0,3.0,82,0.00,,,0.00,Wunderground PWS Mod,2013-08-14 11:15:00,
2013-08-14 07:21:00,58.7,53.2,29.74,North,5,0.0,3.0,82,0.00,,,0.00,Wunderground PWS Mod,2013-08-14 11:21:00,
2013-08-14 07:26:00,58.7,53.5,29.74,NE,43,0.0,3.0,83,0.00,,,0.00,Wunderground PWS Mod,2013-08-14 11:26:00,
2013-08-14 07:31:00,58.7,53.5,29.74,NNE,17,0.0,3.0,83,0.00,,,0.00,Wunderground PWS Mod,2013-08-14 11:31:00,
2013-08-14 07:36:00,58.9,53.7,29.74,NNE,32,0.0,3.0,83,0.00,,,0.00,Wunderground PWS Mod,2013-08-14 11:36:00,
2013-08-14 07:42:00,59.1,53.6,29.74,North,5,0.0,3.0,82,0.00,,,0.00,Wunderground PWS Mod,2013-08-14 11:42:00,
2013-08-14 07:47:00,59.2,54.4,29.74,ENE,62,0.0,3.0,84,0.00,,,0.00,Wunderground PWS Mod,2013-08-14 11:47:00,
2013-08-14 07:53:00,59.3,53.8,29.74,South,188,0.0,3.0,82,0.00,,,0.00,Wunderground PWS Mod,2013-08-14 11:53:00,
2013-08-14 07:58:00,59.4,53.9,29.74,South,178,0.0,3.0,82,0.00,,,0.00,Wunderground PWS Mod,2013-08-14 11:58:00,
2013-08-14 08:04:00,59.8,53.6,29.74,WNW,301,0.0,3.0,80,0.00,,,0.00,Wunderground PWS Mod,2013-08-14 12:04:00,
2013-08-14 08:10:00,60.1,53.9,29.74,SSW,203,1.0,4.0,80,0.00,,,0.00,Wunderground PWS Mod,2013-08-14 12:10:00,
2013-08-14 08:14:00,59.7,53.5,29.74,North,0,0.0,4.0,80,0.00,,,0.00,Wunderground PWS Mod,2013-08-14 12:14:00,
2013-08-14 08:15:00,60.4,54.2,29.74,NNE,22,1.0,4.0,80,0.00,,,0.00,Wunderground PWS Mod,2013-08-14 12:15:00,
2013-08-14 08:21:00,60.7,53.8,29.74,NNE,28,1.0,4.0,78,0.00,,,0.00,Wunderground PWS Mod,2013-08-14 12:21:00,
2013-08-14 08:26:00,61.0,54.1,29.75,NNE,27,0.0,4.0,78,0.00,,,0.00,Wunderground PWS Mod,2013-08-14 12:26:00,
2013-08-14 08:32:00,61.2,54.3,29.75,North,5,0.0,4.0,78,0.00,,,0.00,Wunderground PWS Mod,2013-08-14 12:32:00,
2013-08-14 08:37:00,61.3,54.0,29.74,WNW,286,0.0,4.0,77,0.00,,,0.00,Wunderground PWS Mod,2013-08-14 12:37:00,
2013-08-14 08:43:00,61.6,54.0,29.74,ENE,63,1.0,4.0,76,0.00,,,0.00,Wunderground PWS Mod,2013-08-14 12:43:00,
2013-08-14 08:48:00,61.8,54.2,29.74,NE,52,1.0,4.0,76,0.00,,,0.00,Wunderground PWS Mod,2013-08-14 12:48:00,
2013-08-14 08:54:00,62.1,54.1,29.74,North,360,0.0,4.0,75,0.00,,,0.00,Wunderground PWS Mod,2013-08-14 12:54:00,
2013-08-14 09:00:00,62.4,54.0,29.74,ESE,122,0.0,4.0,74,0.00,,,0.00,Wunderground PWS Mod,2013-08-14 13:00:00,
2013-08-14 09:05:00,62.6,54.2,29.74,North,355,0.0,4.0,74,0.00,,,0.00,Wunderground PWS Mod,2013-08-14 13:05:00,
2013-08-14 09:10:00,62.9,54.5,29.74,NE,38,0.0,4.0,74,0.00,,,0.00,Wunderground PWS Mod,2013-08-14 13:10:00,
2013-08-14 09:16:00,63.2,54.0,29.74,NNW,343,0.0,4.0,72,0.00,,,0.00,Wunderground PWS Mod,2013-08-14 13:16:00,
2013-08-14 09:21:00,63.4,53.4,29.74,ENE,57,1.0,4.0,70,0.00,,,0.00,Wunderground PWS Mod,2013-08-14 13:21:00,
2013-08-14 09:26:00,63.8,54.2,29.74,NNW,333,1.0,4.0,71,0.00,,,0.00,Wunderground PWS Mod,2013-08-14 13:26:00,
2013-08-14 09:32:00,64.3,53.9,29.74,WSW,238,1.0,4.0,69,0.00,,,0.00,Wunderground PWS Mod,2013-08-14 13:32:00,
2013-08-14 09:37:00,64.7,54.3,29.74,NE,42,1.0,4.0,69,0.00,,,0.00,Wunderground PWS Mod,2013-08-14 13:37:00,
2013-08-14 09:42:00,65.3,54.5,29.74,North,5,1.0,4.0,68,0.00,,,0.00,Wunderground PWS Mod,2013-08-14 13:42:00,
2013-08-14 09:47:00,65.8,55.3,29.75,NNE,17,0.0,4.0,69,0.00,,,0.00,Wunderground PWS Mod,2013-08-14 13:47:00,
2013-08-14 09:53:00,65.8,54.1,29.74,ENE,59,1.0,4.0,66,0.00,,,0.00,Wunderground PWS Mod,2013-08-14 13:53:00,
2013-08-14 09:58:00,65.8,54.5,29.74,North,5,2.0,4.0,67,0.00,,,0.00,Wunderground PWS Mod,2013-08-14 13:58:00,
2013-08-14 10:04:00,66.0,53.9,29.75,NNE,30,1.0,4.0,65,0.00,,,0.00,Wunderground PWS Mod,2013-08-14 14:04:00,
2013-08-14 10:10:00,66.1,54.4,29.75,NE,54,2.0,4.0,66,0.00,,,0.00,Wunderground PWS Mod,2013-08-14 14:10:00,
2013-08-14 10:15:00,66.4,55.5,29.75,NNW,334,1.0,4.0,68,0.00,,,0.00,Wunderground PWS Mod,2013-08-14 14:15:00,
2013-08-14 10:20:00,66.8,55.5,29.75,North,360,1.0,4.0,67,0.00,,,0.00,Wunderground PWS Mod,2013-08-14 14:20:00,
2013-08-14 10:26:00,67.1,54.5,29.75,NE,34,1.0,4.0,64,0.00,,,0.00,Wunderground PWS Mod,2013-08-14 14:26:00,
2013-08-14 10:31:00,67.2,55.5,29.75,NE,42,1.0,4.0,66,0.00,,,0.00,Wunderground PWS Mod,2013-08-14 14:31:00,
2013-08-14 10:36:00,67.6,55.0,29.75,NW,317,1.0,4.0,64,0.00,,,0.00,Wunderground PWS Mod,2013-08-14 14:36:00,
2013-08-14 10:42:00,67.6,54.6,29.75,NNE,14,1.0,4.0,63,0.00,,,0.00,Wunderground PWS Mod,2013-08-14 14:42:00,
2013-08-14 10:47:00,68.0,56.2,29.74,WNW,294,1.0,4.0,66,0.00,,,0.00,Wunderground PWS Mod,2013-08-14 14:47:00,
2013-08-14 10:52:00,68.0,54.9,29.75,North,350,1.0,4.0,63,0.00,,,0.00,Wunderground PWS Mod,2013-08-14 14:52:00,
2013-08-14 10:58:00,68.3,55.2,29.75,ENE,67,1.0,4.0,63,0.00,,,0.00,Wunderground PWS Mod,2013-08-14 14:58:00,
2013-08-14 11:04:00,68.4,55.7,29.75,North,5,1.0,4.0,64,0.00,,,0.00,Wunderground PWS Mod,2013-08-14 15:04:00,
2013-08-14 11:10:00,68.1,55.0,29.75,NE,44,2.0,4.0,63,0.00,,,0.00,Wunderground PWS Mod,2013-08-14 15:10:00,
2013-08-14 11:15:00,68.0,55.4,29.75,SE,143,2.0,4.0,64,0.00,,,0.00,Wunderground PWS Mod,2013-08-14 15:15:00,
2013-08-14 11:21:00,68.2,56.4,29.75,North,360,1.0,4.0,66,0.00,,,0.00,Wunderground PWS Mod,2013-08-14 15:21:00,
2013-08-14 11:26:00,68.6,55.5,29.75,NE,55,1.0,4.0,63,0.00,,,0.00,Wunderground PWS Mod,2013-08-14 15:26:00,
2013-08-14 11:32:00,68.5,54.5,29.75,ENE,63,2.0,4.0,61,0.00,,,0.00,Wunderground PWS Mod,2013-08-14 15:32:00,
2013-08-14 11:38:00,68.8,56.1,29.75,West,263,2.0,4.0,64,0.00,,,0.00,Wunderground PWS Mod,2013-08-14 15:38:00,
2013-08-14 11:43:00,69.4,55.8,29.75,West,279,1.0,4.0,62,0.00,,,0.00,Wunderground PWS Mod,2013-08-14 15:43:00,
2013-08-14 11:48:00,69.2,54.3,29.75,North,11,2.0,4.0,59,0.00,,,0.00,Wunderground PWS Mod,2013-08-14 15:48:00,
2013-08-14 11:54:00,69.2,54.7,29.75,East,97,3.0,4.0,60,0.00,,,0.00,Wunderground PWS Mod,2013-08-14 15:54:00,
2013-08-14 11:59:00,69.4,54.9,29.76,NE,38,2.0,4.0,60,0.00,,,0.00,Wunderground PWS Mod,2013-08-14 15:59:00,
2013-08-14 12:05:00,69.2,53.8,29.76,North,355,2.0,7.0,58,0.00,,,0.00,Wunderground PWS Mod,2013-08-14 16:05:00,
2013-08-14 12:11:00,69.6,55.1,29.76,North,355,1.0,7.0,60,0.00,,,0.00,Wunderground PWS Mod,2013-08-14 16:11:00,
2013-08-14 12:14:00,69.3,54.4,29.76,West,270,2.0,7.0,59,0.00,,,0.00,Wunderground PWS Mod,2013-08-14 16:14:00,
2013-08-14 12:16:00,69.6,54.2,29.76,North,355,1.0,7.0,58,0.00,,,0.00,Wunderground PWS Mod,2013-08-14 16:16:00,
2013-08-14 12:21:00,69.5,54.1,29.76,North,11,2.0,7.0,58,0.00,,,0.00,Wunderground PWS Mod,2013-08-14 16:21:00,
2013-08-14 12:26:00,69.6,55.6,29.76,WNW,295,1.0,7.0,61,0.00,,,0.00,Wunderground PWS Mod,2013-08-14 16:26:00,
2013-08-14 12:31:00,70.2,54.7,29.76,NNE,16,1.0,7.0,58,0.00,,,0.00,Wunderground PWS Mod,2013-08-14 16:31:00,
2013-08-14 12:36:00,70.6,54.6,29.75,North,355,1.0,7.0,57,0.00,,,0.00,Wunderground PWS Mod,2013-08-14 16:36:00,
2013-08-14 12:42:00,70.6,53.6,29.75,NE,48,1.0,7.0,55,0.00,,,0.00,Wunderground PWS Mod,2013-08-14 16:42:00,
2013-08-14 12:47:00,70.7,55.2,29.76,NNW,333,1.0,7.0,58,0.00,,,0.00,Wunderground PWS Mod,2013-08-14 16:47:00,
2013-08-14 12:52:00,70.8,54.3,29.76,NNE,24,1.0,7.0,56,0.00,,,0.00,Wunderground PWS Mod,2013-08-14 16:52:00,
2013-08-14 12:58:00,70.7,55.2,29.76,ENE,58,2.0,7.0,58,0.00,,,0.00,Wunderground PWS Mod,2013-08-14 16:58:00,
2013-08-14 13:04:00,70.7,54.7,29.75,NNE,31,2.0,7.0,57,0.00,,,0.00,Wunderground PWS Mod,2013-08-14 17:04:00,
2013-08-14 13:10:00,70.7,54.7,29.76,NE,46,2.0,7.0,57,0.00,,,0.00,Wunderground PWS Mod,2013-08-14 17:10:00,
2013-08-14 13:15:00,70.7,54.2,29.76,NE,34,2.0,7.0,56,0.00,,,0.00,Wunderground PWS Mod,2013-08-14 17:15:00,
2013-08-14 13:20:00,71.0,55.9,29.76,NNE,13,2.0,7.0,59,0.00,,,0.00,Wunderground PWS Mod,2013-08-14 17:20:00,
2013-08-14 13:25:00,71.8,57.6,29.75,SW,228,1.0,7.0,61,0.00,,,0.00,Wunderground PWS Mod,2013-08-14 17:25:00,
2013-08-14 13:30:00,72.4,55.8,29.76,NE,46,1.0,7.0,56,0.00,,,0.00,Wunderground PWS Mod,2013-08-14 17:30:00,
2013-08-14 13:36:00,71.7,55.7,29.76,North,355,1.0,7.0,57,0.00,,,0.00,Wunderground PWS Mod,2013-08-14 17:36:00,
2013-08-14 13:42:00,71.6,56.5,29.76,NE,53,2.0,7.0,59,0.00,,,0.00,Wunderground PWS Mod,2013-08-14 17:42:00,
2013-08-14 13:47:00,72.2,56.6,29.76,NE,38,1.0,7.0,58,0.00,,,0.00,Wunderground PWS Mod,2013-08-14 17:47:00,
2013-08-14 13:52:00,71.6,55.1,29.76,ENE,62,2.0,7.0,56,0.00,,,0.00,Wunderground PWS Mod,2013-08-14 17:52:00,
2013-08-14 13:57:00,70.8,55.3,29.76,NNW,346,1.0,7.0,58,0.00,,,0.00,Wunderground PWS Mod,2013-08-14 17:57:00,
2013-08-14 14:03:00,71.3,56.2,29.75,NE,48,0.0,7.0,59,0.00,,,0.00,Wunderground PWS Mod,2013-08-14 18:03:00,
2013-08-14 14:09:00,71.3,54.3,29.75,NE,53,2.0,7.0,55,0.00,,,0.00,Wunderground PWS Mod,2013-08-14 18:09:00,
2013-08-14 14:16:00,71.6,54.1,29.76,WSW,256,2.0,7.0,54,0.00,,,0.00,Wunderground PWS Mod,2013-08-14 18:16:00,
2013-08-14 14:22:00,71.8,55.3,29.75,WNW,284,2.0,7.0,56,0.00,,,0.00,Wunderground PWS Mod,2013-08-14 18:22:00,
2013-08-14 14:28:00,71.6,54.6,29.75,NE,51,2.0,7.0,55,0.00,,,0.00,Wunderground PWS Mod,2013-08-14 18:28:00,
2013-08-14 14:34:00,72.0,54.9,29.76,NE,49,2.0,7.0,55,0.00,,,0.00,Wunderground PWS Mod,2013-08-14 18:34:00,
2013-08-14 14:40:00,71.9,53.8,29.76,NE,42,2.0,7.0,53,0.00,,,0.00,Wunderground PWS Mod,2013-08-14 18:40:00,
2013-08-14 14:45:00,71.5,54.0,29.76,North,9,2.0,7.0,54,0.00,,,0.00,Wunderground PWS Mod,2013-08-14 18:45:00,
2013-08-14 14:51:00,71.2,53.7,29.76,North,11,2.0,7.0,54,0.00,,,0.00,Wunderground PWS Mod,2013-08-14 18:51:00,
2013-08-14 14:57:00,71.0,53.5,29.76,North,11,2.0,7.0,54,0.00,,,0.00,Wunderground PWS Mod,2013-08-14 18:57:00,
2013-08-14 15:03:00,71.2,54.2,29.76,East,82,2.0,7.0,55,0.00,,,0.00,Wunderground PWS Mod,2013-08-14 19:03:00,
2013-08-14 15:13:00,71.7,56.1,29.76,NNW,327,2.0,7.0,58,0.00,,,0.00,Wunderground PWS Mod,2013-08-14 19:13:00,
2013-08-14 15:18:00,71.5,54.5,29.76,WSW,247,1.0,7.0,55,0.00,,,0.00,Wunderground PWS Mod,2013-08-14 19:18:00,
2013-08-14 15:24:00,71.0,54.0,29.76,North,355,2.0,7.0,55,0.00,,,0.00,Wunderground PWS Mod,2013-08-14 19:24:00,
2013-08-14 15:29:00,71.0,55.5,29.76,NW,323,2.0,7.0,58,0.00,,,0.00,Wunderground PWS Mod,2013-08-14 19:29:00,
2013-08-14 15:35:00,71.3,55.3,29.76,WNW,302,2.0,7.0,57,0.00,,,0.00,Wunderground PWS Mod,2013-08-14 19:35:00,
2013-08-14 15:40:00,70.8,55.8,29.76,ENE,65,2.0,7.0,59,0.00,,,0.00,Wunderground PWS Mod,2013-08-14 19:40:00,
2013-08-14 15:46:00,70.4,54.9,29.76,NW,325,2.0,7.0,58,0.00,,,0.00,Wunderground PWS Mod,2013-08-14 19:46:00,
2013-08-14 15:51:00,70.5,56.4,29.76,WSW,254,1.0,7.0,61,0.00,,,0.00,Wunderground PWS Mod,2013-08-14 19:51:00,
2013-08-14 15:56:00,70.6,55.6,29.76,North,5,1.0,7.0,59,0.00,,,0.00,Wunderground PWS Mod,2013-08-14 19:56:00,
2013-08-14 16:02:00,70.1,55.1,29.76,NNW,327,1.0,7.0,59,0.00,,,0.00,Wunderground PWS Mod,2013-08-14 20:02:00,
2013-08-14 16:08:00,70.0,55.9,29.76,SSE,167,1.0,9.0,61,0.00,,,0.00,Wunderground PWS Mod,2013-08-14 20:08:00,
2013-08-14 16:11:00,70.0,55.0,29.76,North,0,1.0,9.0,59,0.00,,,0.00,Wunderground PWS Mod,2013-08-14 20:11:00,
2013-08-14 16:14:00,70.4,55.4,29.76,NNW,329,1.0,9.0,59,0.00,,,0.00,Wunderground PWS Mod,2013-08-14 20:14:00,
2013-08-14 16:22:00,70.4,55.8,29.76,NNW,329,1.0,9.0,60,0.00,,,0.00,Wunderground PWS Mod,2013-08-14 20:22:00,
2013-08-14 16:27:00,70.1,55.1,29.77,North,360,1.0,9.0,59,0.00,,,0.00,Wunderground PWS Mod,2013-08-14 20:27:00,
2013-08-14 16:35:00,70.1,55.1,29.77,SE,138,1.0,9.0,59,0.00,,,0.00,Wunderground PWS Mod,2013-08-14 20:35:00,
2013-08-14 16:41:00,70.5,55.5,29.77,SE,144,1.0,9.0,59,0.00,,,0.00,Wunderground PWS Mod,2013-08-14 20:41:00,
2013-08-14 16:46:00,70.9,55.4,29.77,ENE,67,1.0,9.0,58,0.00,,,0.00,Wunderground PWS Mod,2013-08-14 20:46:00,
2013-08-14 16:52:00,71.2,55.7,29.77,WSW,256,1.0,9.0,58,0.00,,,0.00,Wunderground PWS Mod,2013-08-14 20:52:00,
2013-08-14 16:57:00,71.6,55.1,29.78,NNW,331,1.0,9.0,56,0.00,,,0.00,Wunderground PWS Mod,2013-08-14 20:57:00,
2013-08-14 17:02:00,71.8,54.8,29.78,NE,49,1.0,9.0,55,0.00,,,0.00,Wunderground PWS Mod,2013-08-14 21:02:00,
2013-08-14 17:08:00,72.1,55.0,29.78,ESE,109,1.0,9.0,55,0.00,,,0.00,Wunderground PWS Mod,2013-08-14 21:08:00,
2013-08-14 17:13:00,72.2,55.6,29.78,WNW,287,1.0,9.0,56,0.00,,,0.00,Wunderground PWS Mod,2013-08-14 21:13:00,
2013-08-14 17:19:00,72.1,55.5,29.78,NNE,25,1.0,9.0,56,0.00,,,0.00,Wunderground PWS Mod,2013-08-14 21:19:00,
2013-08-14 17:24:00,71.9,54.9,29.79,West,261,2.0,9.0,55,0.00,,,0.00,Wunderground PWS Mod,2013-08-14 21:24:00,
2013-08-14 17:30:00,71.7,55.2,29.79,NNW,336,1.0,9.0,56,0.00,,,0.00,Wunderground PWS Mod,2013-08-14 21:30:00,
2013-08-14 17:35:00,71.7,55.2,29.79,ESE,112,1.0,9.0,56,0.00,,,0.00,Wunderground PWS Mod,2013-08-14 21:35:00,
2013-08-14 17:41:00,71.5,55.0,29.79,WNW,296,2.0,9.0,56,0.00,,,0.00,Wunderground PWS Mod,2013-08-14 21:41:00,
2013-08-14 17:46:00,71.3,54.8,29.79,NNW,332,2.0,9.0,56,0.00,,,0.00,Wunderground PWS Mod,2013-08-14 21:46:00,
2013-08-14 17:52:00,71.1,54.6,29.79,NNW,340,1.0,9.0,56,0.00,,,0.00,Wunderground PWS Mod,2013-08-14 21:52:00,
2013-08-14 17:57:00,70.8,54.3,29.79,NNE,12,2.0,9.0,56,0.00,,,0.00,Wunderground PWS Mod,2013-08-14 21:57:00,
2013-08-14 18:03:00,70.6,54.6,29.79,NNW,331,1.0,9.0,57,0.00,,,0.00,Wunderground PWS Mod,2013-08-14 22:03:00,
2013-08-14 18:08:00,70.4,54.0,29.79,WNW,294,1.0,9.0,56,0.00,,,0.00,Wunderground PWS Mod,2013-08-14 22:08:00,
2013-08-14 18:14:00,70.2,54.7,29.80,ENE,61,1.0,9.0,58,0.00,,,0.00,Wunderground PWS Mod,2013-08-14 22:14:00,
2013-08-14 18:20:00,70.2,55.2,29.80,West,271,1.0,9.0,59,0.00,,,0.00,Wunderground PWS Mod,2013-08-14 22:20:00,
2013-08-14 18:25:00,70.1,55.1,29.80,NNW,330,0.0,9.0,59,0.00,,,0.00,Wunderground PWS Mod,2013-08-14 22:25:00,
2013-08-14 18:32:00,69.9,54.4,29.80,East,84,1.0,9.0,58,0.00,,,0.00,Wunderground PWS Mod,2013-08-14 22:32:00,
2013-08-14 18:37:00,69.7,54.7,29.80,NNE,33,1.0,9.0,59,0.00,,,0.00,Wunderground PWS Mod,2013-08-14 22:37:00,
2013-08-14 18:42:00,69.5,54.5,29.81,NW,316,1.0,9.0,59,0.00,,,0.00,Wunderground PWS Mod,2013-08-14 22:42:00,
2013-08-14 18:48:00,69.4,56.3,29.81,NE,36,0.0,9.0,63,0.00,,,0.00,Wunderground PWS Mod,2013-08-14 22:48:00,
2013-08-14 18:54:00,69.0,55.4,29.81,North,350,0.0,9.0,62,0.00,,,0.00,Wunderground PWS Mod,2013-08-14 22:54:00,
2013-08-14 18:59:00,68.8,54.8,29.81,North,355,1.0,9.0,61,0.00,,,0.00,Wunderground PWS Mod,2013-08-14 22:59:00,
2013-08-14 19:05:00,68.7,55.2,29.82,North,5,1.0,9.0,62,0.00,,,0.00,Wunderground PWS Mod,2013-08-14 23:05:00,
2013-08-14 19:10:00,68.4,55.7,29.82,SSE,159,0.0,9.0,64,0.00,,,0.00,Wunderground PWS Mod,2013-08-14 23:10:00,
2013-08-14 19:16:00,68.1,55.9,29.82,SSW,201,0.0,9.0,65,0.00,,,0.00,Wunderground PWS Mod,2013-08-14 23:16:00,
2013-08-14 19:21:00,67.7,55.9,29.83,SSW,198,0.0,9.0,66,0.00,,,0.00,Wunderground PWS Mod,2013-08-14 23:21:00,
2013-08-14 19:27:00,67.4,56.9,29.83,South,173,0.0,9.0,69,0.00,,,0.00,Wunderground PWS Mod,2013-08-14 23:27:00,
2013-08-14 19:32:00,66.9,55.6,29.83,South,173,0.0,9.0,67,0.00,,,0.00,Wunderground PWS Mod,2013-08-14 23:32:00,
2013-08-14 19:37:00,66.5,55.2,29.84,WNW,283,0.0,9.0,67,0.00,,,0.00,Wunderground PWS Mod,2013-08-14 23:37:00,
2013-08-14 19:43:00,66.4,54.7,29.84,West,278,0.0,9.0,66,0.00,,,0.00,Wunderground PWS Mod,2013-08-14 23:43:00,
2013-08-14 19:48:00,66.4,54.3,29.84,North,9,0.0,9.0,65,0.00,,,0.00,Wunderground PWS Mod,2013-08-14 23:48:00,
2013-08-14 19:54:00,66.3,54.6,29.85,North,5,0.0,9.0,66,0.00,,,0.00,Wunderground PWS Mod,2013-08-14 23:54:00,
2013-08-14 20:00:00,66.2,54.5,29.85,NNW,333,0.0,9.0,66,0.00,,,0.00,Wunderground PWS Mod,2013-08-15 00:00:00,
2013-08-14 20:05:00,66.0,54.7,29.85,North,355,0.0,5.0,67,0.00,,,0.00,Wunderground PWS Mod,2013-08-15 00:05:00,
2013-08-14 20:10:00,65.7,54.4,29.86,NNW,344,0.0,5.0,67,0.00,,,0.00,Wunderground PWS Mod,2013-08-15 00:10:00,
2013-08-14 20:14:00,66.1,54.4,29.85,North,0,0.0,5.0,66,0.00,,,0.00,Wunderground PWS Mod,2013-08-15 00:14:00,
2013-08-14 20:16:00,65.6,54.3,29.86,NNW,344,0.0,5.0,67,0.00,,,0.00,Wunderground PWS Mod,2013-08-15 00:16:00,
2013-08-14 20:21:00,65.4,54.6,29.87,North,355,0.0,5.0,68,0.00,,,0.00,Wunderground PWS Mod,2013-08-15 00:21:00,
2013-08-14 20:26:00,65.3,54.5,29.87,North,355,0.0,5.0,68,0.00,,,0.00,Wunderground PWS Mod,2013-08-15 00:26:00,
2013-08-14 20:31:00,65.0,54.2,29.87,NNW,345,0.0,5.0,68,0.00,,,0.00,Wunderground PWS Mod,2013-08-15 00:31:00,
2013-08-14 20:36:00,64.9,54.1,29.87,NW,324,0.0,5.0,68,0.00,,,0.00,Wunderground PWS Mod,2013-08-15 00:36:00,
2013-08-14 20:42:00,64.7,54.7,29.88,NW,324,0.0,5.0,70,0.00,,,0.00,Wunderground PWS Mod,2013-08-15 00:42:00,
2013-08-14 20:47:00,64.5,54.9,29.89,North,350,0.0,5.0,71,0.00,,,0.00,Wunderground PWS Mod,2013-08-15 00:47:00,
2013-08-14 20:53:00,64.3,54.7,29.89,North,350,0.0,5.0,71,0.00,,,0.00,Wunderground PWS Mod,2013-08-15 00:53:00,
2013-08-14 20:58:00,64.0,54.8,29.89,North,355,0.0,5.0,72,0.00,,,0.00,Wunderground PWS Mod,2013-08-15 00:58:00,
2013-08-14 21:03:00,63.8,54.6,29.90,North,355,0.0,5.0,72,0.00,,,0.00,Wunderground PWS Mod,2013-08-15 01:03:00,
2013-08-14 21:08:00,63.7,54.9,29.90,NNW,348,0.0,5.0,73,0.00,,,0.00,Wunderground PWS Mod,2013-08-15 01:08:00,
2013-08-14 21:14:00,63.6,54.8,29.90,NNW,342,0.0,5.0,73,0.00,,,0.00,Wunderground PWS Mod,2013-08-15 01:14:00,
2013-08-14 21:20:00,63.4,55.0,29.91,NNW,342,0.0,5.0,74,0.00,,,0.00,Wunderground PWS Mod,2013-08-15 01:20:00,
2013-08-14 21:25:00,63.2,55.1,29.91,NNW,342,0.0,5.0,75,0.00,,,0.00,Wunderground PWS Mod,2013-08-15 01:25:00,
2013-08-14 21:30:00,63.0,54.6,29.91,NNW,335,0.0,5.0,74,0.00,,,0.00,Wunderground PWS Mod,2013-08-15 01:30:00,
2013-08-14 21:36:00,62.9,54.5,29.91,NNE,32,0.0,5.0,74,0.00,,,0.00,Wunderground PWS Mod,2013-08-15 01:36:00,
2013-08-14 21:42:00,62.8,54.4,29.91,North,5,0.0,5.0,74,0.00,,,0.00,Wunderground PWS Mod,2013-08-15 01:42:00,
2013-08-14 21:47:00,62.7,54.7,29.92,NNW,348,0.0,5.0,75,0.00,,,0.00,Wunderground PWS Mod,2013-08-15 01:47:00,
2013-08-14 21:53:00,62.6,54.6,29.92,NNW,339,0.0,5.0,75,0.00,,,0.00,Wunderground PWS Mod,2013-08-15 01:53:00,
2013-08-14 21:58:00,62.5,54.1,29.92,NNW,333,0.0,5.0,74,0.00,,,0.00,Wunderground PWS Mod,2013-08-15 01:58:00,
2013-08-14 22:03:00,62.5,54.1,29.92,NW,321,0.0,5.0,74,0.00,,,0.00,Wunderground PWS Mod,2013-08-15 02:03:00,
2013-08-14 22:09:00,62.6,54.2,29.92,NW,314,0.0,5.0,74,0.00,,,0.00,Wunderground PWS Mod,2013-08-15 02:09:00,
2013-08-14 22:14:00,62.5,54.5,29.93,WNW,296,0.0,5.0,75,0.00,,,0.00,Wunderground PWS Mod,2013-08-15 02:14:00,
2013-08-14 22:19:00,62.5,54.1,29.93,NNW,333,0.0,5.0,74,0.00,,,0.00,Wunderground PWS Mod,2013-08-15 02:19:00,
2013-08-14 22:24:00,62.5,54.1,29.93,NNW,344,0.0,5.0,74,0.00,,,0.00,Wunderground PWS Mod,2013-08-15 02:24:00,
2013-08-14 22:30:00,62.4,54.4,29.93,North,5,0.0,5.0,75,0.00,,,0.00,Wunderground PWS Mod,2013-08-15 02:30:00,
2013-08-14 22:35:00,62.2,54.2,29.93,North,5,0.0,5.0,75,0.00,,,0.00,Wunderground PWS Mod,2013-08-15 02:35:00,
2013-08-14 22:41:00,62.1,55.2,29.93,North,5,0.0,5.0,78,0.00,,,0.00,Wunderground PWS Mod,2013-08-15 02:41:00,
2013-08-14 22:46:00,61.7,55.1,29.93,ENE,76,0.0,5.0,79,0.00,,,0.00,Wunderground PWS Mod,2013-08-15 02:46:00,
2013-08-14 22:51:00,61.3,55.1,29.94,NE,42,0.0,5.0,80,0.00,,,0.00,Wunderground PWS Mod,2013-08-15 02:51:00,
2013-08-14 22:56:00,61.0,54.4,29.94,NNE,15,0.0,5.0,79,0.00,,,0.00,Wunderground PWS Mod,2013-08-15 02:56:00,
2013-08-14 23:02:00,60.8,54.6,29.94,NE,49,0.0,5.0,80,0.00,,,0.00,Wunderground PWS Mod,2013-08-15 03:02:00,
2013-08-14 23:07:00,60.5,54.3,29.94,East,84,0.0,5.0,80,0.00,,,0.00,Wunderground PWS Mod,2013-08-15 03:07:00,
2013-08-14 23:12:00,60.2,54.3,29.94,ESE,116,0.0,5.0,81,0.00,,,0.00,Wunderground PWS Mod,2013-08-15 03:12:00,
2013-08-14 23:17:00,60.0,54.8,29.94,NNE,25,0.0,5.0,83,0.00,,,0.00,Wunderground PWS Mod,2013-08-15 03:17:00,
2013-08-14 23:23:00,59.8,54.6,29.95,ESE,112,0.0,5.0,83,0.00,,,0.00,Wunderground PWS Mod,2013-08-15 03:23:00,
2013-08-14 23:28:00,59.5,54.3,29.95,ESE,115,0.0,5.0,83,0.00,,,0.00,Wunderground PWS Mod,2013-08-15 03:28:00,
2013-08-14 23:34:00,59.2,54.4,29.95,ESE,115,0.0,5.0,84,0.00,,,0.00,Wunderground PWS Mod,2013-08-15 03:34:00,
2013-08-14 23:40:00,59.0,54.5,29.95,ESE,115,0.0,5.0,85,0.00,,,0.00,Wunderground PWS Mod,2013-08-15 03:40:00,
2013-08-14 23:45:00,58.8,54.6,29.95,ESE,115,0.0,5.0,86,0.00,,,0.00,Wunderground PWS Mod,2013-08-15 03:45:00,
2013-08-14 23:51:00,58.6,54.4,29.96,ESE,115,0.0,5.0,86,0.00,,,0.00,Wunderground PWS Mod,2013-08-15 03:51:00,
2013-08-14 23:56:00,58.4,53.9,29.96,ESE,115,0.0,5.0,85,0.00,,,0.00,Wunderground PWS Mod,2013-08-15 03:56:00,